Wind_Speed
45 46 47 43 42 43 42 40 38 36 36 35 35 34 32 30 30 29 27 26 25 24 22 21 19 19 20 20 21 22 23 25 27 27 29 30 31 32 32 32 32 31 31
44 46 44 37 38 40 40 36 34 34 34 34 34 33 32 30 29 27 26 25 24 22 21 20 20 20 20 21 22 23 24 25 27 28 28 28 30 31 31 31 32 32 31
43 40 38 36 34 30 24 26 30 32 34 36 35 34 33 31 29 27 25 24 23 22 22 21 21 21 22 23 24 24 24 25 27 28 28 28 28 29 30 30 30 31 31
39 41 42 41 39 37 39 35 31 31 34 35 35 33 31 30 28 27 25 23 23 23 23 23 24 24 24 25 25 25 25 25 26 28 28 28 28 28 27 28 29 30 30
38 39 40 41 42 41 39 39 36 35 33 34 35 33 31 29 26 25 25 24 24 25 25 26 26 26 26 26 27 27 27 26 27 27 28 28 28 27 25 24 27 29 30
36 37 38 39 40 40 40 40 38 37 36 36 35 34 33 30 28 27 27 27 27 28 28 29 30 30 30 29 28 29 28 28 28 28 27 27 27 26 25 23 24 27 29
34 36 37 38 39 40 40 40 41 39 38 39 39 37 35 34 33 31 30 30 31 32 32 32 32 33 33 31 31 30 29 29 29 28 27 27 26 26 25 23 23 25 27
36 38 39 41 42 43 43 44 44 45 44 43 43 42 41 40 39 37 36 35 35 35 36 36 35 35 35 34 33 31 30 30 29 29 28 27 26 25 24 24 23 23 25
40 41 43 45 46 48 49 49 50 50 49 49 49 48 47 47 45 44 43 42 41 40 40 39 38 38 38 37 35 33 32 31 30 29 28 27 26 25 24 23 23 22 23
43 44 46 48 50 52 53 54 54 55 55 55 54 54 54 54 53 51 51 50 48 46 45 44 42 41 39 38 37 35 33 32 31 30 29 28 27 25 24 23 22 22 22
46 48 50 52 53 55 57 58 58 59 59 59 59 59 59 59 59 58 57 56 55 54 52 49 47 45 42 40 39 37 35 34 33 31 30 28 27 25 24 22 22 21 21
51 53 55 57 58 59 61 62 63 64 64 64 64 63 63 63 63 63 63 62 61 59 57 55 53 50 47 44 42 39 37 35 33 32 30 28 27 26 24 22 21 21 20
57 59 61 63 64 65 67 68 69 69 70 70 70 70 69 69 69 68 67 66 65 64 62 60 57 54 52 49 45 42 40 37 35 33 31 29 27 25 24 22 21 20 20
63 65 67 69 71 72 73 73 74 74 75 75 75 74 74 75 74 74 73 72 71 70 68 66 63 59 55 51 49 46 42 40 37 35 32 29 27 26 24 22 21 20 19
68 70 72 74 75 75 74 73 71 69 67 65 64 64 65 67 69 71 73 75 75 75 74 72 69 65 61 56 53 50 46 43 39 37 35 31 28 26 24 22 21 20 20
73 74 74 73 71 68 64 59 56 52 49 47 45 44 45 46 49 52 57 62 67 71 73 75 74 71 67 63 59 55 51 47 43 38 36 33 30 27 25 23 22 21 20
72 70 66 62 58 53 49 47 44 43 41 40 40 40 40 40 39 40 42 45 49 55 62 67 70 72 72 69 64 60 56 51 46 42 37 34 31 28 26 24 23 21 20
64 59 55 50 47 45 43 43 42 43 43 43 43 43 42 41 40 40 39 38 39 42 46 53 59 64 67 70 68 64 59 53 49 45 41 36 33 29 27 24 23 21 20
53 50 47 45 44 44 45 46 46 46 45 45 45 45 44 44 43 42 40 39 38 37 38 39 45 52 57 62 66 65 60 55 51 47 42 38 34 30 28 26 24 21 20
47 47 47 47 47 48 48 49 48 48 48 48 47 47 46 45 44 42 40 39 37 36 35 34 35 39 45 52 57 60 59 55 51 47 43 39 35 32 29 27 25 22 20
47 48 49 50 51 51 51 51 51 52 51 51 49 48 47 46 44 42 39 38 36 35 34 32 32 33 36 43 49 52 54 53 49 46 42 39 36 34 30 28 26 23 21
50 51 53 53 53 53 54 54 53 52 52 51 50 48 46 44 42 39 37 36 34 33 32 30 30 30 31 36 43 48 50 49 48 45 43 39 37 34 31 28 26 23 21
53 54 55 55 54 54 54 54 53 52 51 49 48 45 42 41 38 36 35 34 33 31 30 28 27 27 29 32 39 46 49 48 47 45 42 39 36 33 30 27 25 23 21
54 55 55 56 55 55 54 53 51 49 47 45 43 41 38 36 35 33 32 31 30 29 28 27 26 26 27 29 35 45 50 48 46 45 42 39 36 32 29 27 24 22 21
56 56 55 55 53 51 48 46 45 43 41 38 36 35 34 33 31 30 29 28 28 27 26 25 24 24 25 27 33 44 49 48 47 44 41 38 34 31 29 27 24 22 20
56 55 54 51 49 47 45 42 39 36 33 31 29 27 26 25 25 25 25 25 25 24 23 22 22 21 22 26 33 43 47 48 47 43 39 36 33 31 29 27 24 22 20
Wind_Direction
279 279 275 271 273 275 275 274 273 276 281 284 288 290 292 294 293 289 285 281 277 272 269 269 272 276 280 285 290 294 298 301 302 302 300 296 290 284 278 273 270 267 266
273 268 264 257 265 267 265 265 269 277 281 285 287 290 292 293 293 288 282 276 270 264 262 265 271 275 280 284 288 293 298 301 304 305 304 300 295 288 281 273 268 265 265
279 277 275 273 273 269 275 284 277 280 285 288 289 292 292 291 290 286 279 272 266 261 262 266 270 275 279 283 286 290 295 300 304 307 308 305 299 291 284 277 269 264 261
287 286 287 287 287 287 295 299 292 290 290 292 292 291 291 290 289 284 276 268 262 261 263 266 270 275 280 283 285 289 294 299 303 307 308 309 305 297 287 278 271 265 260
290 288 289 291 293 295 295 299 299 297 294 294 293 290 293 292 289 283 276 271 266 262 264 268 271 275 279 284 286 290 294 298 302 304 306 308 308 304 295 282 272 265 260
290 288 289 290 291 293 295 296 296 298 296 295 294 293 292 292 288 282 277 274 270 267 265 268 271 274 278 281 284 288 292 295 299 303 305 307 307 305 299 290 276 266 261
292 290 290 290 291 291 293 293 295 294 293 292 292 290 288 286 283 279 277 276 274 271 269 269 271 274 277 278 280 284 288 291 295 299 302 305 307 304 300 294 282 270 263
295 293 293 292 292 292 292 291 290 290 289 288 288 287 285 282 280 278 276 274 272 271 271 271 272 273 275 276 277 279 283 287 290 294 298 302 304 303 301 296 287 276 266
296 294 293 292 291 291 291 290 289 288 287 285 284 283 282 280 278 276 275 273 272 270 270 270 271 271 272 273 275 276 278 281 285 288 293 297 301 301 300 297 291 282 271
296 293 291 290 289 288 288 287 286 285 284 283 282 280 279 277 275 274 272 272 271 270 268 267 267 267 268 269 270 272 273 276 279 283 287 291 296 299 299 297 294 287 276
295 294 292 290 289 288 287 286 285 283 282 281 279 278 276 275 274 272 271 270 269 268 266 265 264 265 266 266 265 266 267 270 273 277 282 286 290 294 297 297 293 287 279
295 293 292 291 289 288 287 285 284 283 282 280 278 277 275 274 273 271 270 269 268 267 266 264 263 262 264 264 262 260 261 264 267 272 276 280 285 289 293 295 293 287 280
296 295 294 293 291 289 287 286 284 282 281 279 278 276 274 273 271 270 269 268 267 266 265 263 262 261 261 261 260 258 257 258 261 265 270 275 280 285 289 292 292 287 280
299 297 296 295 293 291 289 287 285 283 281 280 278 275 273 271 270 268 267 266 265 264 263 262 261 260 259 258 257 257 255 253 256 260 265 270 276 282 285 288 289 287 280
301 300 298 296 295 293 292 290 289 287 285 284 281 278 276 273 270 267 265 264 262 261 261 261 260 258 256 255 254 255 253 251 252 256 260 265 271 278 282 284 285 284 279
304 302 301 299 298 296 295 294 293 292 291 289 286 284 282 279 276 273 269 266 263 261 259 258 257 256 255 254 252 253 251 249 249 253 256 260 265 272 277 281 282 281 278
306 305 303 302 301 300 298 297 295 293 291 289 287 286 284 282 280 279 277 273 269 265 261 258 256 254 252 252 250 251 249 247 246 248 251 255 261 267 273 276 276 277 277
309 308 307 306 304 302 300 298 296 294 291 289 288 286 284 283 281 279 279 278 275 271 267 262 256 253 251 249 248 247 245 243 243 245 247 251 257 262 268 270 272 272 273
313 312 311 308 306 303 301 299 297 294 292 289 287 284 282 281 281 279 276 274 274 273 271 268 260 253 249 247 245 243 240 239 240 240 241 247 253 258 263 266 266 267 268
316 314 312 308 306 304 302 299 296 294 292 289 287 284 282 280 278 277 273 270 270 271 271 269 264 256 248 243 240 237 235 234 236 236 238 243 250 255 259 261 262 263 263
317 314 311 309 306 303 301 299 296 294 291 289 287 284 281 279 276 274 271 268 267 267 268 266 263 257 248 239 233 228 226 226 229 231 234 239 245 250 253 256 257 257 256
318 315 313 310 307 304 301 299 296 294 291 288 286 284 280 277 273 271 267 265 264 263 263 263 261 256 247 236 225 218 213 214 220 225 229 234 239 244 246 248 249 249 248
320 318 316 314 311 307 303 300 296 293 290 287 285 282 278 273 270 267 263 260 259 259 258 258 257 253 245 234 221 209 203 204 211 217 222 227 233 237 239 240 241 241 240
323 322 320 318 314 310 307 303 298 294 290 287 282 278 274 270 267 264 260 256 254 253 252 253 250 249 243 231 216 204 196 196 202 210 215 220 225 228 231 233 234 233 232
328 326 325 323 321 317 313 308 303 300 294 289 285 278 272 267 263 258 254 249 247 246 245 246 245 244 240 228 213 199 192 192 197 203 209 214 218 221 223 224 225 224 222
334 333 332 331 328 324 322 316 309 304 298 293 288 281 271 262 256 251 246 242 238 236 239 240 240 241 238 223 205 195 190 189 191 196 203 207 210 213 216 217 216 213 211
Height
5858 5851 5846 5840 5835 5834 5829 5830 5833 5834 5835 5835 5834 5833 5832 5831 5830 5829 5829 5828 5828 5828 5828 5828 5828 5828 5827 5826 5825 5824 5822 5821 5818 5816 5815 5813 5811 5811 5811 5812 5813 5814 5815
5846 5836 5828 5819 5823 5822 5815 5811 5817 5823 5825 5825 5825 5825 5824 5824 5824 5822 5822 5822 5822 5822 5822 5823 5823 5823 5822 5821 5820 5819 5817 5815 5812 5810 5808 5806 5805 5802 5802 5803 5804 5805 5807
5836 5825 5820 5812 5813 5811 5800 5804 5808 5814 5815 5818 5818 5818 5817 5816 5816 5816 5816 5816 5816 5816 5817 5817 5817 5817 5817 5816 5815 5813 5811 5810 5807 5803 5801 5799 5797 5795 5794 5794 5795 5797 5798
5830 5824 5820 5815 5811 5809 5808 5808 5809 5808 5809 5810 5810 5810 5809 5809 5809 5808 5808 5809 5810 5810 5811 5811 5811 5811 5811 5810 5809 5807 5805 5804 5801 5798 5794 5792 5789 5787 5787 5786 5786 5788 5789
5827 5822 5817 5814 5811 5809 5808 5806 5806 5804 5803 5802 5803 5802 5802 5802 5802 5802 5802 5802 5803 5804 5804 5805 5805 5804 5804 5803 5802 5801 5799 5797 5795 5793 5789 5786 5782 5779 5779 5779 5779 5779 5780
5823 5819 5815 5811 5808 5805 5803 5801 5800 5799 5798 5796 5795 5794 5795 5794 5795 5795 5795 5796 5796 5796 5797 5798 5798 5797 5797 5796 5795 5794 5792 5791 5789 5786 5783 5781 5777 5774 5772 5772 5772 5772 5772
5819 5815 5811 5808 5804 5801 5798 5795 5793 5792 5791 5789 5788 5787 5786 5786 5786 5787 5787 5788 5788 5788 5788 5789 5790 5789 5789 5789 5788 5787 5786 5784 5782 5780 5777 5775 5772 5768 5766 5765 5764 5765 5765
5814 5809 5805 5800 5797 5793 5790 5788 5785 5783 5781 5780 5778 5777 5777 5777 5777 5777 5778 5778 5778 5779 5779 5780 5780 5781 5781 5780 5780 5779 5778 5777 5775 5774 5771 5769 5766 5763 5760 5758 5758 5758 5758
5806 5802 5797 5792 5787 5783 5780 5777 5774 5772 5770 5768 5767 5766 5765 5765 5766 5766 5766 5767 5768 5768 5769 5769 5770 5771 5771 5771 5771 5771 5770 5769 5768 5767 5765 5763 5760 5757 5755 5753 5751 5751 5752
5797 5793 5788 5783 5778 5773 5768 5765 5762 5759 5757 5755 5754 5753 5752 5752 5752 5752 5753 5753 5754 5756 5757 5758 5759 5760 5761 5761 5762 5762 5762 5761 5761 5760 5758 5756 5754 5752 5749 5747 5745 5745 5745
5787 5782 5777 5771 5767 5761 5756 5751 5747 5744 5742 5740 5738 5737 5736 5735 5735 5736 5736 5737 5739 5740 5742 5744 5746 5747 5749 5750 5751 5752 5752 5753 5752 5752 5751 5750 5748 5746 5743 5741 5740 5739 5739
5776 5770 5764 5758 5753 5747 5742 5737 5732 5728 5725 5722 5721 5719 5718 5717 5717 5717 5718 5719 5721 5723 5726 5728 5731 5733 5736 5738 5739 5741 5742 5743 5743 5744 5743 5742 5741 5739 5737 5735 5734 5733 5733
5762 5755 5748 5742 5736 5730 5725 5719 5714 5709 5706 5702 5700 5699 5697 5697 5697 5697 5698 5699 5701 5704 5707 5711 5714 5718 5721 5724 5727 5729 5731 5733 5734 5734 5735 5734 5734 5732 5730 5729 5728 5727 5727
5746 5738 5731 5723 5715 5708 5702 5697 5691 5686 5682 5678 5676 5674 5673 5672 5673 5674 5676 5678 5680 5683 5686 5691 5695 5700 5705 5709 5713 5716 5719 5721 5723 5725 5726 5726 5726 5725 5724 5722 5721 5721 5721
5729 5720 5710 5701 5692 5684 5677 5670 5665 5660 5655 5653 5650 5648 5647 5647 5647 5648 5650 5653 5656 5660 5664 5669 5674 5680 5686 5692 5697 5701 5706 5710 5712 5714 5716 5717 5718 5717 5717 5716 5715 5715 5715
5709 5698 5688 5678 5669 5661 5654 5648 5643 5638 5634 5632 5630 5629 5627 5626 5626 5626 5627 5629 5631 5635 5639 5645 5651 5658 5665 5672 5679 5686 5691 5696 5700 5703 5706 5708 5709 5709 5709 5709 5708 5708 5709
5688 5676 5666 5657 5649 5642 5636 5631 5627 5623 5620 5618 5616 5614 5612 5611 5610 5610 5610 5610 5611 5612 5616 5620 5626 5634 5642 5650 5660 5668 5675 5681 5687 5691 5695 5698 5700 5701 5702 5702 5702 5702 5702
5668 5658 5649 5641 5634 5628 5623 5619 5614 5610 5607 5604 5602 5600 5598 5597 5596 5596 5596 5595 5595 5595 5596 5599 5604 5610 5618 5628 5638 5649 5658 5666 5673 5679 5683 5687 5691 5693 5694 5695 5696 5696 5697
5653 5645 5637 5629 5623 5617 5611 5606 5601 5597 5593 5590 5587 5585 5583 5582 5582 5581 5581 5581 5581 5581 5582 5582 5585 5590 5597 5606 5616 5628 5639 5649 5658 5665 5671 5677 5681 5684 5686 5688 5689 5690 5691
5642 5633 5626 5618 5611 5604 5598 5592 5586 5582 5578 5574 5571 5569 5567 5566 5566 5566 5567 5567 5568 5568 5569 5570 5571 5574 5579 5586 5596 5608 5621 5634 5644 5652 5660 5666 5671 5675 5678 5680 5682 5683 5685
5632 5623 5614 5606 5598 5590 5583 5576 5570 5565 5561 5557 5554 5552 5551 5550 5550 5551 5552 5553 5554 5555 5556 5558 5559 5561 5565 5570 5579 5590 5603 5617 5629 5639 5648 5655 5662 5666 5670 5672 5675 5677 5679
5622 5612 5602 5593 5584 5575 5566 5559 5553 5547 5542 5538 5536 5534 5533 5533 5534 5535 5537 5539 5541 5543 5545 5546 5548 5550 5553 5558 5565 5576 5589 5603 5616 5627 5637 5645 5652 5658 5662 5665 5668 5671 5673
5609 5598 5588 5578 5568 5558 5548 5540 5534 5528 5523 5520 5518 5516 5516 5517 5518 5520 5523 5525 5528 5531 5534 5536 5538 5540 5543 5547 5553 5564 5577 5591 5604 5616 5626 5634 5642 5649 5654 5658 5662 5665 5668
5598 5585 5574 5562 5552 5541 5531 5521 5514 5508 5504 5501 5500 5499 5500 5501 5503 5506 5509 5513 5517 5520 5524 5526 5529 5531 5534 5538 5544 5554 5567 5580 5593 5605 5616 5625 5633 5641 5647 5651 5655 5659 5663
5586 5573 5560 5547 5535 5524 5514 5504 5497 5491 5487 5485 5484 5484 5485 5487 5490 5494 5498 5502 5506 5510 5514 5518 5521 5523 5526 5530 5536 5545 5558 5572 5585 5597 5607 5617 5626 5634 5640 5645 5650 5654 5658
5576 5562 5548 5535 5522 5510 5500 5491 5483 5478 5474 5472 5471 5471 5473 5475 5479 5483 5488 5492 5497 5502 5506 5511 5514 5517 5520 5523 5530 5539 5551 5564 5577 5590 5601 5611 5620 5628 5634 5640 5645 5649 5654